La Plata, MO

12:54 PM CDT on August 30, 2016 (GMT -0500)
Kirksville Regional

Weather History for KIRK - November, 2012

Change the Weather History Date:

Wednesday, November 28, 2012

  Actual Average Record
Temperature  
Mean Temperature 33 °F 35 °F  
Max Temperature 48 °F 44 °F 66 °F (1960)
Min Temperature 18 °F 26 °F 0 °F (1976)
Degree Days  
Heating Degree Days 32 30  
Month to date heating degree days 650 673  
Since 1 July heating degree days 1229 1162  
Cooling Degree Days 0 0  
Month to date cooling degree days 2 0  
Year to date cooling degree days 1321 939  
Moisture  
Dew Point 23 °F    
Average Humidity 65    
Maximum Humidity 85    
Minimum Humidity 45    
Precipitation  
Precipitation 0.00 in 0.08 in 1.01 in (1918)
Month to date precipitation 1.73 2.55  
Year to date precipitation 26.42 37.39  
Sea Level Pressure  
Sea Level Pressure 30.36 in    
Wind  
Wind Speed 5 mph (South)    
Max Wind Speed 10 mph    
Max Gust Speed 14 mph    
Visibility 10 miles    
Events      
T = Trace of Precipitation, MM = Missing Value Source: NWS Daily Summary

Daily Weather History Graph

Daily Weather History Graph

Search for Another Location

Airport or City:

Trip Planner

Search our weather history database for the weather conditions in past years. The results will help you decide how hot, cold, wet, or windy it might be!

Date:

Astronomy

Nov. 28, 2012 Rise Set
Actual Time 7:10 AM CST 4:45 PM CST
Civil Twilight 6:40 AM CST 5:15 PM CST
Nautical Twilight 6:07 AM CST 5:49 PM CST
Astronomical Twilight 5:34 AM CST 6:21 PM CST
Moon 5:01 PM CST (11/28) 7:08 AM CST (11/28)
Length of Visible Light 10h 35m
Length of Day
9h 35m
Full, 100% of the Moon is Illuminated
Nov 28
Full
Dec 6
Last Quarter
Dec 13
New
Dec 19
First Quarter
Dec 28
Full

Hourly Weather History & Observations

Time (CST) Temp. Windchill Dew Point Humidity Pressure Visibility Wind Dir Wind Speed Gust Speed Precip Events Conditions
12:55 AM 27.0 °F 21.6 °F 17.1 °F 66% 30.35 in 10.0 mi SW 4.6 mph - N/A   Clear
1:55 AM 27.0 °F 20.5 °F 17.1 °F 66% 30.35 in 10.0 mi SW 5.8 mph - N/A   Clear
2:55 AM 25.0 °F 19.3 °F 17.1 °F 72% 30.37 in 10.0 mi West 4.6 mph - N/A   Clear
3:55 AM 21.0 °F 14.6 °F 17.1 °F 85% 30.38 in 10.0 mi West 4.6 mph - N/A   Clear
4:55 AM 19.9 °F 14.9 °F 15.1 °F 81% 30.39 in 10.0 mi West 3.5 mph - N/A   Clear
5:55 AM 24.1 °F 18.2 °F 17.1 °F 75% 30.40 in 10.0 mi NW 4.6 mph - N/A   Clear
6:55 AM 18.0 °F - 14.0 °F 84% 30.42 in 10.0 mi Calm Calm - N/A   Clear
7:55 AM 25.0 °F 20.7 °F 18.0 °F 75% 30.43 in 10.0 mi North 3.5 mph - N/A   Clear
8:55 AM 32.0 °F 27.5 °F 21.9 °F 66% 30.45 in 10.0 mi NNE 4.6 mph - N/A   Clear
9:55 AM 36.0 °F 33.3 °F 24.1 °F 62% 30.45 in 10.0 mi ENE 3.5 mph - N/A   Clear
10:55 AM 39.0 °F 34.8 °F 25.0 °F 57% 30.45 in 10.0 mi East 5.8 mph - N/A   Clear
11:55 AM 42.1 °F 39.2 °F 26.1 °F 53% 30.43 in 10.0 mi SSE 4.6 mph - N/A   Clear
12:55 PM 45.0 °F 41.2 °F 27.0 °F 49% 30.39 in 10.0 mi South 6.9 mph - N/A   Clear
1:55 PM 46.9 °F - 27.0 °F 46% 30.35 in 10.0 mi SE 5.8 mph - N/A   Clear
2:55 PM 46.9 °F - 27.0 °F 46% 30.34 in 10.0 mi SSE 4.6 mph - N/A   Clear
3:55 PM 46.0 °F 41.9 °F 27.0 °F 47% 30.33 in 10.0 mi South 8.1 mph - N/A   Clear
4:55 PM 37.9 °F 33.5 °F 26.1 °F 62% 30.32 in 10.0 mi South 5.8 mph - N/A   Clear
5:55 PM 35.1 °F 30.1 °F 26.1 °F 70% 30.32 in 10.0 mi South 5.8 mph - N/A   Clear
6:55 PM 30.9 °F 24.3 °F 25.0 °F 79% 30.32 in 10.0 mi South 6.9 mph - N/A   Clear
7:55 PM 30.9 °F 23.5 °F 25.0 °F 79% 30.30 in 10.0 mi SSE 8.1 mph - N/A   Clear
8:55 PM 30.9 °F 22.8 °F 26.1 °F 82% 30.28 in 9.0 mi South 9.2 mph - N/A   Clear
9:55 PM 34.0 °F 29.8 °F 27.0 °F 75% 30.27 in 10.0 mi South 4.6 mph - N/A   Clear
10:55 PM 32.0 °F 24.8 °F 26.1 °F 79% 30.26 in 10.0 mi South 8.1 mph - N/A   Clear
11:55 PM 33.1 °F 26.9 °F 26.1 °F 75% 30.25 in 10.0 mi South 6.9 mph - N/A   Clear